Time,TemperatureF,DewpointF,PressureIn,WindDirection,WindDirectionDegrees,WindSpeedMPH,WindSpeedGustMPH,Humidity,HourlyPrecipIn,Conditions,Clouds,dailyrainin,SoftwareType,DateUTC
2013-01-07 00:03:00,29.0,26.0,29.93,West,273,0.0,0.0,88,-99.99,,,-99.99,,2013-01-07 05:03:00,
2013-01-07 00:12:00,29.0,26.0,29.93,West,273,0.0,0.0,88,-99.99,,,-99.99,,2013-01-07 05:12:00,
2013-01-07 00:22:00,30.0,27.0,29.94,West,271,0.0,1.0,87,-99.99,,,-99.99,,2013-01-07 05:22:00,
2013-01-07 00:33:00,31.0,28.0,29.94,West,271,0.0,0.0,87,-99.99,,,-99.99,,2013-01-07 05:33:00,
2013-01-07 00:42:00,31.0,28.0,29.94,West,271,0.0,0.0,87,-99.99,,,-99.99,,2013-01-07 05:42:00,
2013-01-07 00:53:00,31.0,27.0,29.94,West,271,0.0,0.0,85,-99.99,,,-99.99,,2013-01-07 05:53:00,
2013-01-07 01:02:00,31.0,27.0,29.94,West,271,0.0,0.0,84,-99.99,,,-99.99,,2013-01-07 06:02:00,
2013-01-07 01:12:00,30.0,26.0,29.95,West,271,0.0,0.0,84,-99.99,,,-99.99,,2013-01-07 06:12:00,
2013-01-07 01:22:00,30.0,26.0,29.95,West,271,0.0,0.0,84,-99.99,,,-99.99,,2013-01-07 06:22:00,
2013-01-07 01:32:00,30.0,26.0,29.96,West,271,0.0,0.0,84,-99.99,,,-99.99,,2013-01-07 06:32:00,
2013-01-07 01:42:00,30.0,26.0,29.96,West,271,0.0,0.0,84,-99.99,,,-99.99,,2013-01-07 06:42:00,
2013-01-07 01:52:00,29.0,25.0,29.96,West,271,0.0,0.0,85,-99.99,,,-99.99,,2013-01-07 06:52:00,
2013-01-07 02:02:00,30.0,27.0,29.97,West,271,0.0,0.0,87,-99.99,,,-99.99,,2013-01-07 07:02:00,
2013-01-07 02:12:00,30.0,27.0,29.97,West,271,0.0,0.0,87,-99.99,,,-99.99,,2013-01-07 07:12:00,
2013-01-07 02:22:00,29.0,25.0,29.97,West,271,0.0,0.0,86,-99.99,,,-99.99,,2013-01-07 07:22:00,
2013-01-07 02:33:00,29.0,25.0,29.97,West,271,0.0,0.0,86,-99.99,,,-99.99,,2013-01-07 07:33:00,
2013-01-07 02:42:00,29.0,25.0,29.97,West,271,0.0,0.0,86,-99.99,,,-99.99,,2013-01-07 07:42:00,
2013-01-07 02:53:00,29.0,26.0,29.98,West,271,0.0,0.0,87,-99.99,,,-99.99,,2013-01-07 07:53:00,
2013-01-07 03:03:00,30.0,27.0,29.98,West,271,0.0,0.0,87,-99.99,,,-99.99,,2013-01-07 08:03:00,
2013-01-07 03:12:00,30.0,27.0,29.98,West,271,0.0,0.0,87,-99.99,,,-99.99,,2013-01-07 08:12:00,
2013-01-07 03:22:00,31.0,28.0,29.98,West,271,1.0,3.0,87,-99.99,,,-99.99,,2013-01-07 08:22:00,
2013-01-07 03:33:00,32.0,28.0,29.97,West,271,1.0,3.0,85,-99.99,,,-99.99,,2013-01-07 08:33:00,
2013-01-07 03:42:00,32.0,28.0,29.97,West,271,1.0,3.0,85,-99.99,,,-99.99,,2013-01-07 08:42:00,
2013-01-07 03:53:00,32.0,27.0,29.98,West,271,0.0,2.0,83,-99.99,,,-99.99,,2013-01-07 08:53:00,
2013-01-07 04:02:00,32.0,27.0,29.99,West,271,0.0,0.0,82,-99.99,,,-99.99,,2013-01-07 09:02:00,
2013-01-07 04:12:00,32.0,27.0,29.99,West,271,0.0,0.0,82,-99.99,,,-99.99,,2013-01-07 09:12:00,
2013-01-07 04:22:00,31.0,26.0,29.99,West,271,0.0,0.0,81,-99.99,,,-99.99,,2013-01-07 09:22:00,
2013-01-07 04:32:00,31.0,26.0,29.99,West,271,0.0,0.0,81,-99.99,,,-99.99,,2013-01-07 09:32:00,
2013-01-07 04:42:00,31.0,26.0,29.99,West,271,0.0,0.0,81,-99.99,,,-99.99,,2013-01-07 09:42:00,
2013-01-07 04:53:00,30.0,25.0,30.01,West,271,0.0,0.0,82,-99.99,,,-99.99,,2013-01-07 09:53:00,
2013-01-07 05:02:00,30.0,25.0,30.01,West,271,0.0,0.0,82,-99.99,,,-99.99,,2013-01-07 10:02:00,
2013-01-07 05:12:00,29.0,25.0,30.02,West,271,0.0,0.0,85,-99.99,,,-99.99,,2013-01-07 10:12:00,
2013-01-07 05:22:00,29.0,25.0,30.02,West,271,0.0,0.0,85,-99.99,,,-99.99,,2013-01-07 10:22:00,
2013-01-07 05:32:00,29.0,25.0,30.03,West,271,0.0,0.0,85,-99.99,,,-99.99,,2013-01-07 10:32:00,
2013-01-07 05:43:00,29.0,25.0,30.03,West,271,0.0,0.0,85,-99.99,,,-99.99,,2013-01-07 10:43:00,
2013-01-07 05:52:00,29.0,25.0,30.03,West,271,0.0,0.0,85,-99.99,,,-99.99,,2013-01-07 10:52:00,
2013-01-07 06:02:00,29.0,26.0,30.04,WNW,286,0.0,3.0,87,-99.99,,,-99.99,,2013-01-07 11:02:00,
2013-01-07 06:12:00,29.0,26.0,30.04,WNW,286,0.0,3.0,87,-99.99,,,-99.99,,2013-01-07 11:12:00,
2013-01-07 06:23:00,29.0,26.0,30.04,WNW,286,0.0,3.0,87,-99.99,,,-99.99,,2013-01-07 11:23:00,
2013-01-07 06:33:00,29.0,25.0,30.06,WNW,286,0.0,0.0,86,-99.99,,,-99.99,,2013-01-07 11:33:00,
2013-01-07 06:43:00,29.0,25.0,30.06,WNW,286,0.0,0.0,86,-99.99,,,-99.99,,2013-01-07 11:43:00,
2013-01-07 06:53:00,29.0,26.0,30.08,WNW,286,0.0,1.0,87,-99.99,,,-99.99,,2013-01-07 11:53:00,
2013-01-07 07:03:00,29.0,26.0,30.09,WNW,286,0.0,0.0,87,-99.99,,,-99.99,,2013-01-07 12:03:00,
2013-01-07 07:12:00,29.0,26.0,30.09,WNW,286,0.0,0.0,87,-99.99,,,-99.99,,2013-01-07 12:12:00,
2013-01-07 07:22:00,29.0,26.0,30.09,WNW,286,0.0,0.0,87,-99.99,,,-99.99,,2013-01-07 12:22:00,
2013-01-07 07:33:00,30.0,27.0,30.11,WNW,287,3.0,5.0,89,-99.99,,,-99.99,,2013-01-07 12:33:00,
2013-01-07 07:43:00,30.0,27.0,30.11,WNW,287,3.0,5.0,89,-99.99,,,-99.99,,2013-01-07 12:43:00,
2013-01-07 07:53:00,31.0,28.0,30.12,NW,309,0.0,2.0,88,-99.99,,,-99.99,,2013-01-07 12:53:00,
2013-01-07 08:03:00,31.0,28.0,30.12,NW,309,0.0,2.0,88,-99.99,,,-99.99,,2013-01-07 13:03:00,
2013-01-07 08:12:00,31.0,28.0,30.12,NW,309,0.0,2.0,88,-99.99,,,-99.99,,2013-01-07 13:12:00,
2013-01-07 08:23:00,30.0,27.0,30.15,NW,309,2.0,3.0,87,-99.99,,,-99.99,,2013-01-07 13:23:00,
2013-01-07 08:33:00,30.0,27.0,30.16,NW,309,0.0,0.0,88,-99.99,,,-99.99,,2013-01-07 13:33:00,
2013-01-07 08:43:00,30.0,27.0,30.16,NW,309,0.0,0.0,88,-99.99,,,-99.99,,2013-01-07 13:43:00,
2013-01-07 08:53:00,31.0,28.0,30.19,North,355,0.0,1.0,88,-99.99,,,-99.99,,2013-01-07 13:53:00,
2013-01-07 09:03:00,32.0,28.0,30.19,WNW,302,0.0,5.0,86,-99.99,,,-99.99,,2013-01-07 14:03:00,
2013-01-07 09:12:00,34.0,29.0,30.21,WNW,302,0.0,0.0,81,-99.99,,,-99.99,,2013-01-07 14:12:00,
2013-01-07 09:23:00,34.0,29.0,30.21,WNW,302,0.0,0.0,81,-99.99,,,-99.99,,2013-01-07 14:23:00,
2013-01-07 09:33:00,34.0,28.0,30.22,NE,51,0.0,0.0,79,-99.99,,,-99.99,,2013-01-07 14:33:00,
2013-01-07 09:43:00,34.0,28.0,30.22,NE,51,0.0,0.0,79,-99.99,,,-99.99,,2013-01-07 14:43:00,
2013-01-07 09:53:00,34.0,28.0,30.22,NE,51,0.0,0.0,79,-99.99,,,-99.99,,2013-01-07 14:53:00,
2013-01-07 10:03:00,35.0,28.0,30.25,WNW,296,0.0,2.0,75,-99.99,,,-99.99,,2013-01-07 15:03:00,
2013-01-07 10:12:00,35.0,28.0,30.25,WNW,296,0.0,2.0,75,-99.99,,,-99.99,,2013-01-07 15:12:00,
2013-01-07 10:23:00,36.0,29.0,30.25,NW,312,0.0,4.0,74,-99.99,,,-99.99,,2013-01-07 15:23:00,
2013-01-07 10:33:00,37.0,29.0,30.26,NNE,18,0.0,0.0,72,-99.99,,,-99.99,,2013-01-07 15:33:00,
2013-01-07 10:43:00,37.0,29.0,30.26,NNE,18,0.0,0.0,72,-99.99,,,-99.99,,2013-01-07 15:43:00,
2013-01-07 10:53:00,37.0,29.0,30.26,NNE,18,0.0,0.0,72,-99.99,,,-99.99,,2013-01-07 15:53:00,
2013-01-07 11:02:00,37.0,28.0,30.26,NNE,22,0.0,0.0,71,-99.99,,,-99.99,,2013-01-07 16:02:00,
2013-01-07 11:12:00,37.0,28.0,30.26,NNE,22,0.0,0.0,71,-99.99,,,-99.99,,2013-01-07 16:12:00,
2013-01-07 11:23:00,37.0,28.0,30.26,WNW,289,0.0,3.0,69,-99.99,,,-99.99,,2013-01-07 16:23:00,
2013-01-07 11:33:00,36.0,28.0,30.26,NNE,13,1.0,2.0,71,-99.99,,,-99.99,,2013-01-07 16:33:00,
2013-01-07 11:43:00,36.0,28.0,30.26,NNE,13,1.0,2.0,71,-99.99,,,-99.99,,2013-01-07 16:43:00,
2013-01-07 11:53:00,35.0,27.0,30.27,NNE,26,0.0,1.0,73,-99.99,,,-99.99,,2013-01-07 16:53:00,
2013-01-07 12:03:00,35.0,27.0,30.27,NNE,26,0.0,2.0,73,-99.99,,,-99.99,,2013-01-07 17:03:00,
2013-01-07 12:12:00,35.0,27.0,30.27,NNE,26,0.0,2.0,73,-99.99,,,-99.99,,2013-01-07 17:12:00,
2013-01-07 12:23:00,37.0,26.0,30.27,NW,304,1.0,6.0,63,-99.99,,,-99.99,,2013-01-07 17:23:00,
2013-01-07 12:33:00,37.0,25.0,30.28,NW,315,1.0,7.0,61,-99.99,,,-99.99,,2013-01-07 17:33:00,
2013-01-07 12:42:00,37.0,25.0,30.28,NW,315,1.0,7.0,61,-99.99,,,-99.99,,2013-01-07 17:42:00,
2013-01-07 12:53:00,37.0,24.0,30.29,NW,306,2.0,6.0,58,-99.99,,,-99.99,,2013-01-07 17:53:00,
2013-01-07 13:03:00,37.0,23.0,30.28,West,265,5.0,8.0,57,-99.99,,,-99.99,,2013-01-07 18:03:00,
2013-01-07 13:12:00,37.0,23.0,30.28,West,265,5.0,8.0,57,-99.99,,,-99.99,,2013-01-07 18:12:00,
2013-01-07 13:23:00,37.0,23.0,30.29,NW,323,3.0,6.0,56,-99.99,,,-99.99,,2013-01-07 18:23:00,
2013-01-07 13:33:00,37.0,23.0,30.29,WNW,297,4.0,9.0,56,-99.99,,,-99.99,,2013-01-07 18:33:00,
2013-01-07 13:42:00,37.0,22.0,30.30,WNW,282,0.0,7.0,55,-99.99,,,-99.99,,2013-01-07 18:42:00,
2013-01-07 13:53:00,37.0,22.0,30.30,WNW,282,0.0,7.0,55,-99.99,,,-99.99,,2013-01-07 18:53:00,
2013-01-07 14:03:00,37.0,22.0,30.30,NW,313,0.0,3.0,55,-99.99,,,-99.99,,2013-01-07 19:03:00,
2013-01-07 14:12:00,37.0,22.0,30.30,NW,313,0.0,3.0,55,-99.99,,,-99.99,,2013-01-07 19:12:00,
2013-01-07 14:23:00,37.0,21.0,30.31,NW,304,2.0,7.0,51,-99.99,,,-99.99,,2013-01-07 19:23:00,
2013-01-07 14:33:00,37.0,20.0,30.31,WNW,296,2.0,5.0,50,-99.99,,,-99.99,,2013-01-07 19:33:00,
2013-01-07 14:43:00,37.0,20.0,30.31,WNW,296,2.0,5.0,50,-99.99,,,-99.99,,2013-01-07 19:43:00,
2013-01-07 14:53:00,37.0,21.0,30.32,NW,324,1.0,4.0,51,-99.99,,,-99.99,,2013-01-07 19:53:00,
2013-01-07 15:03:00,37.0,20.0,30.32,NNW,335,2.0,4.0,49,-99.99,,,-99.99,,2013-01-07 20:03:00,
2013-01-07 15:12:00,37.0,20.0,30.32,NNW,335,2.0,4.0,49,-99.99,,,-99.99,,2013-01-07 20:12:00,
2013-01-07 15:23:00,36.0,19.0,30.33,West,270,0.0,6.0,50,-99.99,,,-99.99,,2013-01-07 20:23:00,
2013-01-07 15:33:00,35.0,19.0,30.34,West,278,1.0,7.0,52,-99.99,,,-99.99,,2013-01-07 20:33:00,
2013-01-07 15:42:00,35.0,19.0,30.34,West,278,1.0,7.0,52,-99.99,,,-99.99,,2013-01-07 20:42:00,
2013-01-07 15:53:00,34.0,18.0,30.34,NW,310,2.0,6.0,52,-99.99,,,-99.99,,2013-01-07 20:53:00,
2013-01-07 16:03:00,34.0,18.0,30.35,West,279,2.0,5.0,51,-99.99,,,-99.99,,2013-01-07 21:03:00,
2013-01-07 16:12:00,34.0,18.0,30.35,West,279,2.0,5.0,51,-99.99,,,-99.99,,2013-01-07 21:12:00,
2013-01-07 16:23:00,33.0,18.0,30.36,NW,321,1.0,5.0,54,-99.99,,,-99.99,,2013-01-07 21:23:00,
2013-01-07 16:33:00,33.0,18.0,30.36,NW,321,1.0,5.0,54,-99.99,,,-99.99,,2013-01-07 21:33:00,
2013-01-07 16:43:00,33.0,18.0,30.36,NW,321,1.0,5.0,54,-99.99,,,-99.99,,2013-01-07 21:43:00,
2013-01-07 16:53:00,32.0,15.0,30.37,WNW,285,1.0,3.0,50,-99.99,,,-99.99,,2013-01-07 21:53:00,
2013-01-07 17:03:00,32.0,17.0,30.37,WNW,284,0.0,2.0,53,-99.99,,,-99.99,,2013-01-07 22:03:00,
2013-01-07 17:12:00,32.0,17.0,30.37,WNW,284,0.0,2.0,53,-99.99,,,-99.99,,2013-01-07 22:12:00,
2013-01-07 17:23:00,31.0,16.0,30.37,WNW,285,0.0,0.0,54,-99.99,,,-99.99,,2013-01-07 22:23:00,
2013-01-07 17:33:00,30.0,16.0,30.37,WNW,285,0.0,0.0,55,-99.99,,,-99.99,,2013-01-07 22:33:00,
2013-01-07 17:43:00,30.0,16.0,30.37,WNW,285,0.0,0.0,55,-99.99,,,-99.99,,2013-01-07 22:43:00,
2013-01-07 17:53:00,29.0,16.0,30.37,WNW,285,0.0,0.0,59,-99.99,,,-99.99,,2013-01-07 22:53:00,
2013-01-07 18:02:00,28.0,17.0,30.37,WNW,285,0.0,0.0,63,-99.99,,,-99.99,,2013-01-07 23:02:00,
2013-01-07 18:12:00,27.0,16.0,30.39,WNW,285,0.0,0.0,63,-99.99,,,-99.99,,2013-01-07 23:12:00,
2013-01-07 18:22:00,27.0,16.0,30.39,WNW,285,0.0,0.0,63,-99.99,,,-99.99,,2013-01-07 23:22:00,
2013-01-07 18:33:00,26.0,15.0,30.40,WNW,285,0.0,0.0,63,-99.99,,,-99.99,,2013-01-07 23:33:00,
2013-01-07 18:43:00,26.0,15.0,30.40,WNW,285,0.0,0.0,63,-99.99,,,-99.99,,2013-01-07 23:43:00,
2013-01-07 18:53:00,25.0,15.0,30.40,WNW,285,0.0,0.0,66,-99.99,,,-99.99,,2013-01-07 23:53:00,
2013-01-07 19:03:00,25.0,15.0,30.40,WNW,285,0.0,0.0,66,-99.99,,,-99.99,,2013-01-08 00:03:00,
2013-01-07 19:12:00,25.0,15.0,30.40,WNW,285,0.0,0.0,66,-99.99,,,-99.99,,2013-01-08 00:12:00,
2013-01-07 19:22:00,24.0,16.0,30.39,WNW,284,0.0,0.0,70,-99.99,,,-99.99,,2013-01-08 00:22:00,
2013-01-07 19:33:00,24.0,16.0,30.39,WNW,285,0.0,0.0,71,-99.99,,,-99.99,,2013-01-08 00:33:00,
2013-01-07 19:43:00,24.0,16.0,30.39,WNW,285,0.0,0.0,71,-99.99,,,-99.99,,2013-01-08 00:43:00,
2013-01-07 19:53:00,23.0,15.0,30.38,WNW,285,0.0,0.0,72,-99.99,,,-99.99,,2013-01-08 00:53:00,
2013-01-07 20:03:00,23.0,16.0,30.38,WNW,285,0.0,0.0,73,-99.99,,,-99.99,,2013-01-08 01:03:00,
2013-01-07 20:12:00,23.0,16.0,30.38,WNW,285,0.0,0.0,73,-99.99,,,-99.99,,2013-01-08 01:12:00,
2013-01-07 20:22:00,22.0,15.0,30.38,WNW,285,0.0,0.0,73,-99.99,,,-99.99,,2013-01-08 01:22:00,
2013-01-07 20:33:00,22.0,15.0,30.38,WNW,284,0.0,0.0,74,-99.99,,,-99.99,,2013-01-08 01:33:00,
2013-01-07 20:42:00,22.0,15.0,30.38,WNW,284,0.0,0.0,74,-99.99,,,-99.99,,2013-01-08 01:42:00,
2013-01-07 20:52:00,21.0,14.0,30.38,WNW,285,0.0,0.0,75,-99.99,,,-99.99,,2013-01-08 01:52:00,
2013-01-07 21:02:00,21.0,15.0,30.38,WNW,285,0.0,0.0,76,-99.99,,,-99.99,,2013-01-08 02:02:00,
2013-01-07 21:12:00,21.0,15.0,30.38,WNW,285,0.0,0.0,76,-99.99,,,-99.99,,2013-01-08 02:12:00,
2013-01-07 21:22:00,20.0,14.0,30.38,WNW,284,0.0,0.0,77,-99.99,,,-99.99,,2013-01-08 02:22:00,
2013-01-07 21:33:00,20.0,14.0,30.38,WNW,284,0.0,0.0,77,-99.99,,,-99.99,,2013-01-08 02:33:00,
2013-01-07 21:42:00,20.0,14.0,30.38,WNW,284,0.0,0.0,77,-99.99,,,-99.99,,2013-01-08 02:42:00,
2013-01-07 21:53:00,19.0,14.0,30.37,WNW,285,0.0,0.0,79,-99.99,,,-99.99,,2013-01-08 02:53:00,
2013-01-07 22:03:00,19.0,14.0,30.37,WNW,285,0.0,0.0,79,-99.99,,,-99.99,,2013-01-08 03:03:00,
2013-01-07 22:12:00,19.0,14.0,30.37,WNW,285,0.0,0.0,79,-99.99,,,-99.99,,2013-01-08 03:12:00,
2013-01-07 22:22:00,19.0,14.0,30.37,WNW,285,0.0,0.0,79,-99.99,,,-99.99,,2013-01-08 03:22:00,
2013-01-07 22:32:00,18.0,13.0,30.38,WNW,284,0.0,0.0,80,-99.99,,,-99.99,,2013-01-08 03:32:00,
2013-01-07 22:43:00,18.0,13.0,30.38,WNW,284,0.0,0.0,80,-99.99,,,-99.99,,2013-01-08 03:43:00,
2013-01-07 22:52:00,18.0,13.0,30.37,WNW,284,0.0,0.0,82,-99.99,,,-99.99,,2013-01-08 03:52:00,
2013-01-07 23:02:00,18.0,13.0,30.37,WNW,285,0.0,0.0,82,-99.99,,,-99.99,,2013-01-08 04:02:00,
2013-01-07 23:12:00,18.0,13.0,30.37,WNW,285,0.0,0.0,82,-99.99,,,-99.99,,2013-01-08 04:12:00,
2013-01-07 23:22:00,17.0,12.0,30.37,WNW,284,0.0,0.0,82,-99.99,,,-99.99,,2013-01-08 04:22:00,
2013-01-07 23:32:00,17.0,13.0,30.36,WNW,284,0.0,0.0,83,-99.99,,,-99.99,,2013-01-08 04:32:00,
2013-01-07 23:42:00,17.0,13.0,30.36,WNW,284,0.0,0.0,83,-99.99,,,-99.99,,2013-01-08 04:42:00,
2013-01-07 23:52:00,17.0,13.0,30.36,WNW,284,0.0,0.0,84,-99.99,,,-99.99,,2013-01-08 04:52:00,